Location: *
(50.3440°N, 18.6237°E)
Time: 14:42:08
(UTC+00:00)

Cosmos 1151 Rocket - Pass Details

Date: 30 November 2020
Orbit: 593 x 615 km, 82.5° (Epoch: 27 January)

Event Time Altitude Azimuth Distance (km) Brightness Sun altitude
Rises 16:54:40 0° 204° (SSW) 2,833 6.9 -19.8°
Reaches altitude 10° 16:56:56 10° 210° (SSW) 1,933 6.1 -20.1°
Maximum altitude 17:01:03 47° 285° (WNW) 799 4.0 -20.8°
Drops below altitude 10° 17:05:12 10° 360° (N) 1,941 5.5 -21.4°
Enters shadow 17:05:49 - 2° (N) 2,179 5.8 -21.5°
